KLM852 LIRF-LFLL

Flight info

Callsign KLM852
Flight time 1h 2m
Altitude 32000
Route NEMBO DCT LAGEN DCT TOP DCT IXUSA DCT RONOP/N0450F280 DCT GIGUS Z40 AMVAR
Aircraft B77W/H-SDE1E2E3FGHIJ2J3J4J5M1RWXY/LB1D1

Departure

Time 2026-05-05 03:27
Airport Rome–Fiumicino Leonardo da Vinci International Airport (LIRF)

Arrival

Time 2026-05-05 04:29
Airport Lyon Saint-Exupéry Airport (LFLL)
Time Latitude Longitude Altitude Speed Heading
2026-05-05 03:09 41.79804 12.25710 23 ft 0 kts 265°
2026-05-05 03:17 41.79804 12.25713 23 ft 2 kts 265°
2026-05-05 03:18 41.79804 12.25735 26 ft 2 kts 278°
2026-05-05 03:18 41.79799 12.25756 27 ft 2 kts 325°
2026-05-05 03:18 41.79784 12.25760 26 ft 2 kts 26°
2026-05-05 03:18 41.79772 12.25752 28 ft 0 kts 29°
2026-05-05 03:21 41.79784 12.25759 26 ft 6 kts 24°
2026-05-05 03:21 41.79850 12.25801 26 ft 13 kts 27°
2026-05-05 03:21 41.79932 12.25858 26 ft 13 kts 26°
2026-05-05 03:21 41.80019 12.25913 25 ft 14 kts 25°
2026-05-05 03:22 41.80114 12.25971 24 ft 16 kts 24°
2026-05-05 03:22 41.80208 12.26028 19 ft 15 kts 24°
2026-05-05 03:22 41.80305 12.26090 18 ft 14 kts 30°
2026-05-05 03:22 41.80369 12.26188 19 ft 14 kts 68°
2026-05-05 03:23 41.80405 12.26314 18 ft 15 kts 69°
2026-05-05 03:23 41.80443 12.26444 18 ft 15 kts 69°
2026-05-05 03:23 41.80477 12.26577 19 ft 15 kts 71°
2026-05-05 03:23 41.80511 12.26707 18 ft 15 kts 69°
2026-05-05 03:24 41.80549 12.26840 19 ft 15 kts 69°
2026-05-05 03:24 41.80586 12.26970 18 ft 15 kts 69°
2026-05-05 03:24 41.80623 12.27106 17 ft 16 kts 70°
2026-05-05 03:24 41.80671 12.27239 20 ft 16 kts 48°
2026-05-05 03:25 41.80774 12.27287 17 ft 17 kts 353°
2026-05-05 03:25 41.80893 12.27237 14 ft 19 kts 343°
2026-05-05 03:25 41.81006 12.27176 15 ft 9 kts 311°
2026-05-05 03:25 41.81004 12.27096 14 ft 10 kts 243°
2026-05-05 03:26 41.80991 12.27050 14 ft 15 kts 249°
2026-05-05 03:26 41.80890 12.26688 14 ft 80 kts 250°
2026-05-05 03:26 41.80717 12.26060 26 ft 132 kts 249°
2026-05-05 03:26 41.80334 12.24660 163 ft 179 kts 249°
2026-05-05 03:27 41.79921 12.23083 1015 ft 174 kts 246°
2026-05-05 03:27 41.79498 12.21607 1911 ft 172 kts 246°
2026-05-05 03:27 41.79498 12.19913 2305 ft 205 kts 287°
2026-05-05 03:27 41.80306 12.18177 2545 ft 235 kts 301°
2026-05-05 03:28 41.81302 12.16255 2881 ft 263 kts 301°
2026-05-05 03:28 41.82350 12.14207 3701 ft 269 kts 300°
2026-05-05 03:28 41.83406 12.12133 4729 ft 268 kts 300°
2026-05-05 03:28 41.84446 12.10069 5722 ft 266 kts 297°
2026-05-05 03:29 41.85023 12.07754 6467 ft 264 kts 268°
2026-05-05 03:29 41.84654 12.05370 7322 ft 263 kts 244°
2026-05-05 03:29 41.83711 12.03288 8110 ft 261 kts 241°
2026-05-05 03:29 41.83256 12.00924 8791 ft 265 kts 262°
2026-05-05 03:30 41.83103 11.98763 9449 ft 270 kts 262°
2026-05-05 03:30 41.82892 11.96242 10247 ft 276 kts 261°
2026-05-05 03:30 41.82652 11.93602 10650 ft 297 kts 261°
2026-05-05 03:30 41.82378 11.90715 10822 ft 326 kts 261°
2026-05-05 03:31 41.82076 11.87595 11247 ft 345 kts 261°
2026-05-05 03:31 41.81757 11.84344 11945 ft 358 kts 261°
2026-05-05 03:31 41.81431 11.81036 13082 ft 359 kts 261°
2026-05-05 03:31 41.81099 11.77692 14067 ft 365 kts 261°
2026-05-05 03:32 41.80758 11.74285 14929 ft 372 kts 261°
2026-05-05 03:32 41.80411 11.70829 15852 ft 376 kts 261°
2026-05-05 03:32 41.80061 11.67343 16782 ft 381 kts 261°
2026-05-05 03:32 41.79703 11.63802 17703 ft 386 kts 261°
2026-05-05 03:33 41.79351 11.60259 18525 ft 388 kts 263°
2026-05-05 03:33 41.79484 11.56570 19135 ft 399 kts 281°
2026-05-05 03:33 41.80420 11.53105 19961 ft 405 kts 295°
2026-05-05 03:33 41.82038 11.49987 20855 ft 408 kts 307°
2026-05-05 03:34 41.83919 11.47106 21584 ft 415 kts 308°
2026-05-05 03:34 41.85871 11.44209 22217 ft 422 kts 309°
2026-05-05 03:34 41.87858 11.41274 22965 ft 426 kts 308°
2026-05-05 03:34 41.89849 11.38310 23756 ft 428 kts 308°
2026-05-05 03:35 41.91831 11.35329 24422 ft 430 kts 307°
2026-05-05 03:35 41.93815 11.32317 25085 ft 432 kts 307°
2026-05-05 03:35 41.95811 11.29266 25728 ft 434 kts 306°
2026-05-05 03:35 41.97808 11.26200 26307 ft 437 kts 306°
2026-05-05 03:36 41.99815 11.23112 26885 ft 440 kts 306°
2026-05-05 03:36 42.01824 11.20015 27470 ft 443 kts 305°
2026-05-05 03:36 42.03855 11.16882 28036 ft 445 kts 305°
2026-05-05 03:36 42.05890 11.13741 28582 ft 447 kts 305°
2026-05-05 03:37 42.07940 11.10576 29244 ft 447 kts 305°
2026-05-05 03:37 42.09976 11.07433 30015 ft 443 kts 304°
2026-05-05 03:37 42.11994 11.04316 30725 ft 439 kts 304°
2026-05-05 03:37 42.13991 11.01224 31322 ft 437 kts 304°
2026-05-05 03:38 42.15868 10.98312 31831 ft 437 kts 303°
2026-05-05 03:38 42.17865 10.95206 32037 ft 442 kts 303°
2026-05-05 03:38 42.21954 10.88831 32018 ft 456 kts 304°
2026-05-05 03:39 42.26168 10.82270 32024 ft 466 kts 304°
2026-05-05 03:39 42.30626 10.75761 32004 ft 482 kts 312°
2026-05-05 03:40 42.35949 10.70173 31993 ft 491 kts 316°
2026-05-05 03:40 42.41475 10.64705 31992 ft 492 kts 316°
2026-05-05 03:41 42.46947 10.59153 31998 ft 491 kts 315°
2026-05-05 03:41 42.52370 10.53516 31992 ft 491 kts 314°
2026-05-05 03:42 42.57776 10.47840 32000 ft 493 kts 315°
2026-05-05 03:42 42.63203 10.42132 31980 ft 494 kts 315°
2026-05-05 03:43 42.68637 10.36415 31981 ft 494 kts 315°
2026-05-05 03:43 42.74072 10.30686 31980 ft 494 kts 315°
2026-05-05 03:44 42.79502 10.24949 31979 ft 495 kts 316°
2026-05-05 03:44 42.84905 10.19226 31990 ft 496 kts 316°
2026-05-05 03:45 42.90348 10.13450 31978 ft 497 kts 316°
2026-05-05 03:45 42.95811 10.07638 31966 ft 497 kts 316°
2026-05-05 03:46 43.01243 10.01845 31977 ft 497 kts 316°
2026-05-05 03:46 43.06545 9.96178 31965 ft 498 kts 316°
2026-05-05 03:47 43.12011 9.90322 31969 ft 499 kts 316°
2026-05-05 03:47 43.17478 9.84453 31955 ft 499 kts 316°
2026-05-05 03:48 43.22937 9.78575 31963 ft 500 kts 317°
2026-05-05 03:48 43.28416 9.72664 31953 ft 502 kts 317°
2026-05-05 03:49 43.33907 9.66727 31947 ft 502 kts 317°
2026-05-05 03:49 43.39399 9.60775 31943 ft 503 kts 317°
2026-05-05 03:50 43.44889 9.54810 31950 ft 503 kts 318°
2026-05-05 03:50 43.50353 9.48859 31941 ft 505 kts 318°
2026-05-05 03:51 43.55863 9.42842 31943 ft 506 kts 318°
2026-05-05 03:51 43.61478 9.36949 31927 ft 509 kts 327°
2026-05-05 03:52 43.68049 9.33090 31941 ft 517 kts 338°
2026-05-05 03:52 43.74889 9.29937 31939 ft 520 kts 339°
2026-05-05 03:53 43.77318 9.28848 31937 ft 520 kts 339°
2026-05-05 03:53 43.84218 9.25773 31937 ft 521 kts 339°
2026-05-05 03:54 43.91146 9.22702 31938 ft 522 kts 339°
2026-05-05 03:54 43.98065 9.19635 31939 ft 523 kts 339°
2026-05-05 03:55 44.04986 9.16569 31944 ft 522 kts 339°
2026-05-05 03:55 44.11895 9.13472 31944 ft 519 kts 337°
2026-05-05 03:56 44.18252 9.08890 31968 ft 513 kts 326°
2026-05-05 03:56 44.24118 9.03356 31948 ft 512 kts 320°
2026-05-05 03:57 44.29498 8.97324 31962 ft 513 kts 317°
2026-05-05 03:57 44.35009 8.90984 31968 ft 514 kts 317°
2026-05-05 03:58 44.40529 8.84590 31968 ft 515 kts 317°
2026-05-05 03:58 44.45969 8.78090 31962 ft 511 kts 311°
2026-05-05 03:59 44.50454 8.70426 31997 ft 509 kts 304°
2026-05-05 03:59 44.54593 8.62363 31981 ft 511 kts 302°
2026-05-05 04:00 44.58713 8.54175 31984 ft 513 kts 302°
2026-05-05 04:00 44.62810 8.45982 31991 ft 514 kts 302°
2026-05-05 04:01 44.66908 8.37754 31993 ft 514 kts 302°
2026-05-05 04:01 44.71005 8.29513 31998 ft 517 kts 302°
2026-05-05 04:02 44.75173 8.21170 32001 ft 524 kts 302°
2026-05-05 04:02 44.79377 8.12770 32000 ft 526 kts 302°
2026-05-05 04:03 44.83218 8.04211 32005 ft 514 kts 287°
2026-05-05 04:03 44.85467 7.94953 31992 ft 517 kts 296°
2026-05-05 04:04 44.87650 7.90891 32026 ft 523 kts 310°
2026-05-05 04:04 44.90193 7.87203 32006 ft 526 kts 311°
2026-05-05 04:04 44.95144 7.79590 32001 ft 524 kts 303°
2026-05-05 04:05 44.98770 7.70729 32026 ft 519 kts 292°
2026-05-05 04:05 45.01842 7.61608 32027 ft 521 kts 292°
2026-05-05 04:06 45.05107 7.52426 32023 ft 523 kts 294°
2026-05-05 04:06 45.08508 7.43281 32044 ft 524 kts 294°
2026-05-05 04:07 45.11898 7.34163 32052 ft 523 kts 294°
2026-05-05 04:07 45.15264 7.25024 32054 ft 523 kts 294°
2026-05-05 04:08 45.16919 7.20468 31816 ft 516 kts 293°
2026-05-05 04:08 45.18498 7.15946 31128 ft 507 kts 292°
2026-05-05 04:08 45.19887 7.11386 30337 ft 500 kts 289°
2026-05-05 04:08 45.21187 7.06854 29578 ft 492 kts 289°
2026-05-05 04:09 45.22451 7.02393 28960 ft 483 kts 289°
2026-05-05 04:09 45.23614 6.98288 28435 ft 475 kts 289°
2026-05-05 04:09 45.24835 6.93996 27903 ft 467 kts 289°
2026-05-05 04:09 45.26049 6.89736 27328 ft 460 kts 289°
2026-05-05 04:10 45.27243 6.85557 26783 ft 453 kts 289°
2026-05-05 04:10 45.28418 6.81443 26284 ft 445 kts 289°
2026-05-05 04:10 45.29571 6.77400 25744 ft 439 kts 289°
2026-05-05 04:10 45.30697 6.73446 25255 ft 433 kts 289°
2026-05-05 04:11 45.31456 6.70779 24930 ft 429 kts 289°
2026-05-05 04:11 45.32922 6.65618 24266 ft 423 kts 289°
2026-05-05 04:11 45.34014 6.61757 23766 ft 418 kts 289°
2026-05-05 04:11 45.35093 6.57946 23256 ft 414 kts 288°
2026-05-05 04:12 45.36163 6.54165 22713 ft 409 kts 288°
2026-05-05 04:12 45.37215 6.50437 22196 ft 405 kts 288°
2026-05-05 04:12 45.37879 6.47922 21853 ft 398 kts 283°
2026-05-05 04:12 45.38430 6.44125 21410 ft 388 kts 272°
2026-05-05 04:13 45.38519 6.40344 20932 ft 381 kts 264°
2026-05-05 04:13 45.38192 6.36653 20499 ft 373 kts 257°
2026-05-05 04:13 45.37753 6.33029 20024 ft 371 kts 257°
2026-05-05 04:13 45.37316 6.29489 19587 ft 368 kts 257°
2026-05-05 04:14 45.36873 6.25858 19084 ft 365 kts 257°
2026-05-05 04:14 45.36449 6.22325 18687 ft 360 kts 257°
2026-05-05 04:14 45.36037 6.18867 18242 ft 359 kts 256°
2026-05-05 04:14 45.35621 6.15353 17752 ft 357 kts 256°
2026-05-05 04:15 45.35212 6.11889 17264 ft 355 kts 256°
2026-05-05 04:15 45.34807 6.08461 16819 ft 352 kts 257°
2026-05-05 04:15 45.34410 6.05101 16368 ft 350 kts 257°
2026-05-05 04:15 45.34002 6.01657 15925 ft 347 kts 257°
2026-05-05 04:16 45.33658 5.98765 15547 ft 345 kts 257°
2026-05-05 04:16 45.33259 5.95425 15124 ft 342 kts 257°
2026-05-05 04:16 45.32863 5.92108 14764 ft 338 kts 257°
2026-05-05 04:16 45.32476 5.88878 14450 ft 335 kts 257°
2026-05-05 04:17 45.32082 5.85614 14132 ft 336 kts 257°
2026-05-05 04:17 45.31686 5.82336 13823 ft 338 kts 257°
2026-05-05 04:17 45.31288 5.79034 13465 ft 338 kts 257°
2026-05-05 04:17 45.30889 5.75750 13135 ft 337 kts 257°
2026-05-05 04:18 45.30494 5.72477 12804 ft 336 kts 257°
2026-05-05 04:18 45.30100 5.69202 12463 ft 336 kts 257°
2026-05-05 04:18 45.29711 5.65945 12147 ft 334 kts 257°
2026-05-05 04:18 45.29316 5.62700 11830 ft 333 kts 257°
2026-05-05 04:19 45.28927 5.59459 11481 ft 329 kts 259°
2026-05-05 04:19 45.29004 5.56273 11185 ft 318 kts 279°
2026-05-05 04:19 45.29919 5.53432 10928 ft 320 kts 303°
2026-05-05 04:19 45.31494 5.51198 10642 ft 322 kts 319°
2026-05-05 04:20 45.33442 5.49642 10360 ft 320 kts 337°
2026-05-05 04:20 45.35399 5.48345 10021 ft 304 kts 318°
2026-05-05 04:20 45.36757 5.46148 9678 ft 292 kts 294°
2026-05-05 04:20 45.37563 5.43537 9318 ft 286 kts 287°
2026-05-05 04:21 45.38279 5.40915 8972 ft 285 kts 287°
2026-05-05 04:21 45.38999 5.38298 8625 ft 284 kts 287°
2026-05-05 04:21 45.39723 5.35695 8298 ft 283 kts 288°
2026-05-05 04:21 45.40449 5.33101 7969 ft 282 kts 288°
2026-05-05 04:22 45.41175 5.30515 7616 ft 278 kts 288°
2026-05-05 04:22 45.41871 5.28042 7278 ft 263 kts 288°
2026-05-05 04:22 45.42553 5.25599 7013 ft 269 kts 288°
2026-05-05 04:22 45.43252 5.23092 6696 ft 274 kts 288°
2026-05-05 04:23 45.43959 5.20566 6366 ft 274 kts 289°
2026-05-05 04:23 45.44663 5.18050 6006 ft 273 kts 289°
2026-05-05 04:23 45.45364 5.15549 5685 ft 269 kts 290°
2026-05-05 04:23 45.46398 5.13394 5388 ft 265 kts 319°
2026-05-05 04:24 45.48016 5.12254 5122 ft 256 kts 348°
2026-05-05 04:24 45.49734 5.11983 4771 ft 242 kts 358°
2026-05-05 04:24 45.51371 5.11856 4529 ft 227 kts 357°
2026-05-05 04:25 45.54317 5.11527 3970 ft 195 kts 355°
2026-05-05 04:25 45.55608 5.11370 3746 ft 180 kts 356°
2026-05-05 04:25 45.56861 5.11219 3583 ft 182 kts 356°
2026-05-05 04:25 45.58127 5.11064 3324 ft 178 kts 356°
2026-05-05 04:26 45.59293 5.10924 3094 ft 160 kts 356°
2026-05-05 04:26 45.60327 5.10797 2878 ft 149 kts 356°
2026-05-05 04:26 45.61336 5.10675 2725 ft 148 kts 356°
2026-05-05 04:26 45.62366 5.10549 2529 ft 149 kts 355°
2026-05-05 04:27 45.63391 5.10424 2335 ft 147 kts 355°
2026-05-05 04:27 45.64408 5.10299 2128 ft 146 kts 355°
2026-05-05 04:27 45.65421 5.10175 1940 ft 146 kts 355°
2026-05-05 04:27 45.66437 5.10052 1769 ft 146 kts 354°
2026-05-05 04:28 45.67453 5.09926 1558 ft 146 kts 354°
2026-05-05 04:28 45.68457 5.09804 1369 ft 145 kts 355°
2026-05-05 04:28 45.69458 5.09682 1175 ft 143 kts 355°
2026-05-05 04:28 45.70439 5.09557 1018 ft 143 kts 354°
2026-05-05 04:29 45.71432 5.09431 828 ft 139 kts 355°
2026-05-05 04:29 45.72303 5.09330 791 ft 108 kts 355°
2026-05-05 04:29 45.72899 5.09261 781 ft 64 kts 355°
2026-05-05 04:29 45.73242 5.09220 776 ft 40 kts 355°
2026-05-05 04:30 45.73449 5.09190 771 ft 17 kts 345°
2026-05-05 04:30 45.73493 5.09136 771 ft 8 kts 300°
2026-05-05 04:30 45.73519 5.09063 772 ft 8 kts 298°
2026-05-05 04:30 45.73547 5.08993 775 ft 8 kts 301°
2026-05-05 04:31 45.73576 5.08923 778 ft 8 kts 301°
2026-05-05 04:31 45.73606 5.08853 780 ft 8 kts 301°
2026-05-05 04:31 45.73638 5.08778 781 ft 11 kts 301°
2026-05-05 04:31 45.73676 5.08644 780 ft 18 kts 285°
2026-05-05 04:32 45.73713 5.08452 780 ft 22 kts 285°
2026-05-05 04:32 45.73716 5.08300 779 ft 4 kts 244°
2026-05-05 04:32 45.73689 5.08270 779 ft 6 kts 205°
2026-05-05 04:32 45.73637 5.08258 780 ft 9 kts 179°
2026-05-05 04:33 45.73568 5.08265 780 ft 11 kts 175°
2026-05-05 04:33 45.73483 5.08275 781 ft 13 kts 175°
2026-05-05 04:33 45.73383 5.08287 782 ft 15 kts 175°
2026-05-05 04:33 45.73273 5.08300 783 ft 17 kts 175°
2026-05-05 04:34 45.73153 5.08314 785 ft 18 kts 175°
2026-05-05 04:34 45.73025 5.08330 786 ft 19 kts 175°
2026-05-05 04:34 45.72890 5.08347 788 ft 20 kts 175°
2026-05-05 04:34 45.72753 5.08364 790 ft 20 kts 175°
2026-05-05 04:35 45.72613 5.08381 791 ft 20 kts 175°
2026-05-05 04:35 45.72472 5.08399 793 ft 20 kts 175°
2026-05-05 04:35 45.72331 5.08415 795 ft 20 kts 175°
2026-05-05 04:35 45.72192 5.08432 796 ft 20 kts 175°
2026-05-05 04:36 45.72050 5.08449 798 ft 20 kts 175°
2026-05-05 04:36 45.71909 5.08468 800 ft 21 kts 175°
2026-05-05 04:36 45.71759 5.08485 802 ft 22 kts 175°
2026-05-05 04:36 45.71696 5.08463 802 ft 6 kts 221°
2026-05-05 04:37 45.71680 5.08402 803 ft 9 kts 264°
2026-05-05 04:37 45.71674 5.08287 802 ft 14 kts 270°
2026-05-05 04:37 45.71699 5.08134 802 ft 14 kts 298°
2026-05-05 04:37 45.71753 5.07999 801 ft 13 kts 284°
2026-05-05 04:38 45.71755 5.07947 801 ft 0 kts 267°
2026-05-05 04:39 45.71755 5.07948 801 ft 0 kts 267°